STARLINK-32846, 62867

Orbit data source: Space-Track

STARLINK-32846, 62867 is a payload satellite owned by SpaceX/Seattle (US) in LEO that was launched on Sat, 01 Feb 2025 UTC via an FALCON 9 launch vehicle from the Air Force Western Test Range (AFWTR). Payload-class satellites include a variety of spacecraft equipped with specific instruments for various scientific and technological missions. These include communications satellites like Starlink; space stations such as the ISS; scientific satellites like the Hubble; Earth observation satellites from companies like Planet Labs, Umbra, and HawkEye 360; GPS; miniature CubeSats for education and research; and military/defense satellites.

Loading next visibility...
Identifier
62867, 2025-022P
Orbit
LEO
Country
Flag of USUS
Related business
Manufacturer
SpaceX/Seattle
Mission
Operational Commercial Communications
Bus & Motor
STARLINK V2M, Unknown motor
Mass
730 kg wet, ~700 kg dry
Launch date (UTC)
2025-02-01 (11 months ago)
Launch vehicle
FALCON 9
Launch site
Air Force Western Test Range (AFWTR)
Object type
Payload
Rocket body
Debris
Shape & HBR
Box + 2 Pan, 17.7 m
Radar Cross Section
33.884 m², Large (>1 m²)

Expand to show TLE details & history
Last TLE update: 1 day ago

TLE from 1 day ago
0 STARLINK-32846
1 62867U 25022P   25351.73406263  .00017687  00000-0  60789-3 0  9999
2 62867  53.1573 150.1844 0000742  92.1503 267.9583 15.30199493 49356
Epoch: 2025-12-17T17:37Z
TLE epoch observation values (Epoch: 2025-12-17T17:37:03.011Z)
Latitude
0.00002°
Longitude
159.32219°
Altitude
476.134 km
Speed
7.629 km/s
True Right ascension
10h 00m 44s
True Declination
0° 00' 00"
Sunlit
Object was in full shadow at epoch
Visualization orbit readout
Latitude
Unknown
Longitude
Unknown
Altitude
Unknown
Speed
Unknown
Apparent Right ascension
Unknown
Apparent Declination
Unknown
Sunlit
N/A
Visualization observer readout
Local Sidereal Time
16:07:51
Azimuth
Unknown
Elevation
Unknown
Doppler factor
Unknown
Orbital elements
Apogee altitude
475.982 km
Perigee altitude
474.965 km
Semi-major axis
6,853.61 km
Eccentricity
0.00007
Inclination
53.1573°
RAAN
150.1844°
Arg. of periapsis
92.1503°
True anomaly
267.9498°
Mean anomaly
267.9583°
Eccentric anomaly
267.95405°
Mean motion
3.82529 °/min
Orbital period
94.11 mins
BSTAR
0.00060789
Loading maneuver chart data...
Computing Atmospheric mass density...
Loading historical data...
Loading historical data...
Loading historical data...
Loading historical data...
Loading historical data...
Loading historical data...
Loading historical data...

Documentation

Showing up to 5 results
|